Regional Weather Roundup
Issued by NWS

Home | Current Version | Previous Version | Graphics & Text | Print | Product List | Glossary On
Versions: 1 2 3 4 5 6 7 8 9 10 11 12 13 14 15 16 17 18 19 20 21 22 23 24 25 26 27 28 29 30 31 32 33 34 35 36 37 38 39 40 41 42 43 44 45 46 47 48 49 50
228
ASUS43 KMPX 300410
RWRMN
WEATHER ROUNDUP FOR MINNESOTA
NATIONAL WEATHER SERVICE TWIN CITIES/CHANHASSEN MN
1100 PM CDT SAT APR 29 2017


NOTE: "FAIR" INDICATES FEW OR NO CLOUDS BELOW 12,000 FEET WITH NO
SIGNIFICANT WEATHER AND/OR OBSTRUCTIONS TO VISIBILITY. N/A MEANS
CURRENT SKY AND/OR WEATHER CONDITIONS ARE NOT AVAILABLE.

MNZ060>063-068>070-300500-
   Twin Cities Metro

CITY           SKY/WX    TMP DP  RH WIND       PRES   REMARKS
TWIN CITIES    CLOUDY    50  24  36 NE14      30.20S
ST PAUL        CLOUDY    49  27  42 NE14      30.21S
CRYSTAL        CLOUDY    48  20  32 NE8       30.20S
LAKEVILLE      CLOUDY    46  28  49 NE10G17   30.18R
EDEN PRAIRIE   CLOUDY    51  22  31 NE12      30.18F
SOUTH ST PAUL  CLOUDY    49  25  39 NE9G16    30.20R
LAKE ELMO      FAIR      46  28  49 NE12      30.22R
$$
MNZ001>005-007-008-013>017-022>024-027-028-300500-
   Northwest Minnesota

CITY           SKY/WX    TMP DP  RH WIND       PRES   REMARKS
BEMIDJI        CLOUDY    42  24  49 CALM      30.25S
HALLOCK        MOCLDY    41  30  65 SE8       30.21S
ROSEAU         PTCLDY    45  30  57 SE8       30.24S
WARROAD        PTCLDY    43  28  56 SE9       30.25S
THIEF RVR FALL MOCLDY    47  28  47 E6        30.24F
CROOKSTON      CLOUDY    48  36  61 E3        30.24S
FOSSTON        CLOUDY    41  25  52 CALM      30.25S
DETROIT LAKES  CLOUDY    50  23  34 E3        30.26R
MOORHEAD       CLOUDY    48  27  43 E3        30.25R
PARK RAPIDS    CLOUDY    40  27  59 CALM      30.25R
MAHNOMEN       FAIR      44  30  59 E6        30.25R
$$
MNZ006-009>011-018-025>026-300500-
   North Central Minnesota

CITY           SKY/WX    TMP DP  RH WIND       PRES   REMARKS
BAUDETTE       CLOUDY    43  21  41 SE7       30.26R
FLAG ISLAND    PTCLDY    43  21  42 CALM      30.24S
INTL FALLS     PTCLDY    33  24  69 CALM      30.27R
WASKISH        PTCLDY    45  21  39 E5        30.26F
BIG FORK       MOCLDY    43  21  42 SE6       30.28S
LONGVILLE      MOCLDY    45  19  36 SE5       30.27R
GRAND RAPIDS   CLOUDY    42  18  37 SE7       30.30S
CRANE LAKE     PTCLDY    27  23  86 CALM      30.31S
ORR            PTCLDY    39  14  35 SE6       30.27S
COOK           PTCLDY    39  19  45 SE5       30.31R
WALKER         FAIR      43  27  52 CALM      30.26R
$$
MNZ012-019>021-037-300500-
   Northeast Minnesota

CITY           SKY/WX    TMP DP  RH WIND       PRES   REMARKS
DULUTH         CLOUDY    37  16  42 E9        30.29F
ELY            PTCLDY    34  19  55 CALM      30.32R
HIBBING        CLOUDY    35  20  54 SE8       30.30S WCI  29
EVELETH        CLOUDY    37  13  36 CALM      30.33R
DULUTH HARBOR  CLOUDY    39  30  70 NE12      30.33F
TWO HARBORS    PTCLDY    37  19  48 N5        30.31S
SILVER BAY     PTCLDY    30  21  69 CALM      30.32R
GRAND MARAIS     N/A     31  24  75 CALM      30.36R
G MARAIS ARPRT PTCLDY    34  10  37 CALM      30.34R
$$
MNZ029>031-032-039>041-046>048-054>057-064-300500-
   West Central Minnesota

CITY           SKY/WX    TMP DP  RH WIND       PRES   REMARKS
FERGUS FALLS   MOCLDY    48  27  43 NE5       30.24R
WHEATON        CLOUDY    48  23  37 E8        30.24S
MORRIS         MOCLDY    46  25  42 E3        30.22R
ALEXANDRIA     CLOUDY    48  25  40 E7        30.25R
ELBOW LAKE     FAIR      48  27  44 SE5       30.25R
WADENA         CLOUDY    45  23  42 NE7       30.24R
GLENWOOD       CLOUDY    45  28  53 E6        30.24R
APPLETON       CLOUDY    46  28  49 NE6       30.22S
BENSON         CLOUDY    48  18  29 E5        30.24R
ORTONVILLE     CLOUDY    45  30  57 NE5       30.22F
MADISON        CLOUDY    48  30  49 NE7       30.21S
WILLMAR        FAIR      48  21  34 E14       30.22S
$$
MNZ033>034-036-042>043-049>051-058-059-300500-
   Central Minnesota

CITY           SKY/WX    TMP DP  RH WIND       PRES   REMARKS
ST CLOUD       CLOUDY    47  20  34 E7        30.22F
SAUK CENTRE    FAIR      45  26  48 E3        30.24R
PAYNESVILLE    CLOUDY    47  15  27 E10       30.23R
AITKIN         CLOUDY    43  18  36 E5        30.26S
PINE RIVER     PTCLDY    45  25  45 E8        30.30R
BRAINERD       CLOUDY    44  18  35 E7        30.27R
STAPLES        PTCLDY    46  21  36 SE5       30.25R
LONG PRAIRIE   FAIR      45  25  45 NE6       30.24R
LITTLE FALLS   CLOUDY    45  19  36 NE9       30.25R
LITCHFIELD     CLOUDY    48  27  43 E7        30.21F
BUFFALO        CLOUDY    47  26  43 NE9       30.21F
MAPLE LAKE     CLOUDY    48  27  44 NE12      30.22S
HUTCHINSON     MOCLDY    48  31  50 NE10      30.20F
$$
MNZ037-044-045-052-053-300500-
   East Central Minnesota

CITY           SKY/WX    TMP DP  RH WIND       PRES   REMARKS
PRINCETON      CLOUDY    46  21  36 NE8       30.24S
MORA           CLOUDY    43  25  49 NE5       30.27F
CAMBRIDGE      CLOUDY    48  28  46 NE8       30.22F
RUSH CITY      CLOUDY    43  24  47 NE8       30.25F
MOOSE LAKE     CLOUDY    37  21  52 NE3       30.26F
HINCKLEY       FAIR      43  21  42 NE9       30.26F
CLOQUET        CLOUDY    37  12  35 E8        30.29F
MCGREGOR       CLOUDY    41  23  48 E7        30.28F
$$
MNZ071>073-080-081-089-090-097-098-300500-
   Southwest Minnesota

CITY           SKY/WX    TMP DP  RH WIND       PRES   REMARKS
MONTEVIDEO     CLOUDY    46  27  46 E8        30.22S
GRANITE FALLS  CLOUDY    49  29  46 NE10      30.21F
CANBY          CLOUDY    48  26  43 NE8       30.21S
MARSHALL       MOCLDY    46  27  47 NE8       30.19R
REDWOOD FALLS  CLOUDY    49  24  37 NE9       30.17S
OLIVIA         CLOUDY    50  27  40 NE10G16   30.18F
PIPESTONE      CLOUDY    46  19  34 NE8       30.16S
WINDOM         MOCLDY    46  25  42 NE9       30.15R
WORTHINGTON    CLOUDY    44  27  51 N10       30.16R
JACKSON        CLOUDY    45  30  57 NE10      30.14F
TRACY          MOCLDY    46  31  56 N6        30.18S
SLAYTON        CLOUDY    45  25  45 NE9       30.17R
$$
MNZ065>067-074>077-082>085-091>093-300500-
   South Central Minnesota

CITY           SKY/WX    TMP DP  RH WIND       PRES   REMARKS
MANKATO        CLOUDY    49  30  48 NE12      30.15F
NEW ULM        CLOUDY    48  25  40 NE8       30.15F
ST JAMES       CLOUDY    46  28  49 NE7       30.15F
FAIRMONT       CLOUDY    47  31  53 NE9       30.14S
GLENCOE        CLOUDY    50  26  39 NE6       30.18S
FARIBAULT      CLOUDY    48  28  46 NE9       30.16S
OWATONNA       CLOUDY    46  30  53 NE8       30.14S
WASECA         CLOUDY    45  30  57 NE9       30.15F
ALBERT LEA     CLOUDY    45  30  57 NE8       30.12S
$$
MNZ078>079-086>088-094>096-300500-
   Southeast Minnesota

CITY           SKY/WX    TMP DP  RH WIND       PRES   REMARKS
ROCHESTER      CLOUDY    45  31  58 NE14      30.13F
RED WING       CLOUDY    52  25  35 E6        30.16F
STANTON        CLOUDY    49  30  47 NE9       30.15S
DODGE CENTER   CLOUDY    46  32  57 E10       30.14R
WINONA         CLOUDY    48  32  53 E7        30.16F
AUSTIN         CLOUDY    45  30  57 NE13      30.12R
PRESTON        CLOUDY    44  29  56 NE7       30.12S
$$
ABBREVIATIONS USED IN REMARKS
   TC - TEMPERATURES IN CELSIUS
  WCI - WIND CHILL INDEX
   HX - HEAT INDEX
  VSB - VISIBILITY
$$




USA.gov is the U.S. government's official web portal to all federal, state and local government web resources and services.